GOSAT-GW (IBUKI GW)

Last updated on Mon Sep 07 2026 00:02:46 GMT+0000 (Coordinated Universal Time)

1 64694U 25141A 26249.59882091 .00000343 00000+0 68970-4 0 9990 2 64694 98.0585 185.5968 0001432 85.3772 274.7596 14.67553438 63780
UTC large
Height (km)
Speed (km/s)
/
Latitude / Longitude
Inclination (degrees)
Orbital Period (minutes)
Azimuth
Elevation
Range (km)
Doppler Factor

Next 0 passes for location: London (51.5072 / 0.1276)

No passes found over London.
GOSAT-GW (IBUKI GW)